SCP
2 3 3 2 1 1 1 1 2 1 0 0 1 1 1 1 1 0 0 0 0 0 0 0 0 0 0 0 0 0 0 0 0 0 0 0 0 0
3 3 2 2 2 1 1 1 2 2 1 0 1 1 1 0 1 0 0 0 0 0 0 0 0 0 0 0 0 0 0 0 0 0 0 0 0 0
4 3 1 2 2 2 2 2 1 1 1 0 1 0 0 0 0 0 0 0 0 0 0 0 0 0 0 0 0 0 0 0 0 0 0 0 0 0
3 3 2 2 3 2 1 1 1 1 1 1 1 1 1 1 0 0 1 0 0 0 0 0 0 0 0 0 0 0 0 0 0 0 0 0 0 0
3 3 2 1 2 1 1 1 0 1 1 0 1 1 1 1 0 0 0 1 1 0 0 0 0 0 0 0 0 0 0 0 0 0 0 0 0 0
2 1 0 0 0 1 1 1 1 1 0 0 1 0 1 1 0 0 0 0 0 0 0 0 0 0 0 0 0 0 0 0 0 0 0 0 0 0
1 0 0 0 0 0 0 0 1 0 0 0 0 0 0 1 1 1 0 0 -0 0 0 0 0 0 0 0 0 0 0 0 0 0 0 0 0 0
1 0 0 0 0 0 0 0 0 0 0 0 0 0 0 0 1 0 0 0 0 1 0 0 0 0 0 0 0 0 0 0 0 0 0 0 0 0
1 0 0 0 0 0 0 0 0 0 0 0 0 0 0 0 0 0 0 0 -0 0 0 0 0 0 0 0 0 0 0 0 0 0 0 0 0 0
0 0 0 0 0 0 0 0 0 0 0 0 0 0 0 0 0 1 0 0 0 0 0 0 0 0 0 0 0 0 0 0 0 0 0 0 0 0
0 0 0 0 0 0 0 0 0 0 0 0 0 0 0 -0 0 0 0 0 -0 0 0 0 0 0 0 0 0 0 0 0 0 0 0 0 0 0
0 0 0 0 0 0 0 0 0 0 0 0 0 0 -0 -0 0 0 0 0 0 0 0 0 0 0 0 0 0 0 0 0 0 0 0 0 0 0
0 0 0 0 0 0 0 0 0 0 0 0 -0 -0 0 0 0 0 0 0 0 0 0 0 0 0 0 0 0 0 0 0 0 0 0 0 0 0
0 0 0 0 0 0 0 0 0 0 0 0 0 0 0 0 0 0 0 0 0 0 0 0 0 0 0 0 0 0 0 -0 0 0 0 0 0 0
0 0 0 0 -0 -0 0 0 0 0 0 0 0 0 0 0 0 0 1 0 0 0 0 0 0 0 0 0 0 0 0 0 0 0 0 0 0 0
0 0 0 0 0 0 0 0 0 0 0 0 0 0 0 0 0 1 1 0 0 0 0 0 0 0 0 0 0 0 0 0 0 0 0 0 0 0
0 0 0 0 -0 -0 0 0 0 0 0 0 0 0 0 0 0 0 0 0 0 0 0 0 0 0 0 0 0 0 0 0 0 0 0 0 0 0
0 0 0 -0 -0 -0 0 0 0 0 0 0 0 0 1 0 1 1 0 0 0 0 0 0 0 0 0 0 -0 0 0 0 0 0 0 0 0 0
0 0 0 -0 -0 -0 0 0 0 0 0 0 1 1 0 1 0 0 0 0 0 0 0 0 0 0 0 0 0 -0 0 0 0 0 0 0 0 0
0 0 0 0 0 0 0 0 0 0 0 0 1 1 1 1 1 0 -0 0 0 0 0 0 0 0 0 0 0 0 0 0 0 0 0 0 0 0
0 0 0 0 0 0 0 0 0 0 0 0 1 1 1 1 0 0 0 0 0 0 0 0 0 0 0 0 0 0 0 0 0 0 0 0 0 0
0 0 0 0 0 0 0 0 0 0 0 0 0 1 1 0 0 0 0 0 0 0 0 0 0 0 0 0 0 0 0 0 0 0 0 0 0 0
0 0 0 0 0 0 0 0 0 0 0 1 0 1 0 0 0 0 0 0 0 0 0 0 0 0 0 0 0 0 0 0 0 0 0 0 0 0
Wind_Speed_500mb
47 54 54 46 47 47 48 49 41 35 43 51 40 32 32 39 45 35 33 25 27 29 29 30 30 30 34 38 42 40 37 34 33 33 36 33 31 29
48 47 52 38 43 40 40 39 46 48 55 42 38 36 36 35 35 31 32 28 30 32 27 28 26 29 34 36 33 30 29 26 27 29 29 28 25 25
47 42 42 35 33 32 35 33 32 35 44 43 43 49 35 33 36 28 23 25 28 24 25 26 27 29 31 31 27 24 21 23 23 24 27 26 23 23
45 47 41 39 37 33 22 25 27 33 36 42 43 36 30 28 31 35 29 23 30 31 32 28 29 28 29 25 22 20 19 17 16 16 19 21 22 25
41 36 28 27 27 23 22 27 31 35 37 38 42 37 38 35 36 30 30 37 26 36 35 33 29 28 25 21 16 14 11 10 12 13 17 19 23 25
33 31 28 26 25 23 25 28 30 35 38 41 43 43 40 36 45 36 35 35 39 29 30 27 25 24 19 18 14 13 11 11 11 12 13 14 19 20
32 28 25 24 27 28 25 28 34 29 34 36 39 42 48 36 37 33 31 39 35 25 27 27 23 11 14 15 15 15 15 16 15 14 13 12 13 14
32 25 20 23 28 19 24 30 32 40 42 37 41 44 48 34 40 29 26 37 41 34 25 21 19 17 13 12 10 11 15 16 16 16 14 14 14 15
33 28 19 14 16 18 26 32 33 28 32 39 47 48 48 44 38 35 35 38 43 31 20 21 19 18 22 24 26 25 17 15 15 15 14 13 9 7
33 24 19 17 17 20 22 27 32 34 34 40 48 51 49 49 49 53 42 39 30 34 18 23 22 21 24 28 26 21 18 14 13 11 11 10 8 6
29 24 21 20 23 24 30 30 33 36 35 36 44 53 56 54 49 41 21 22 36 32 28 24 23 21 17 16 13 20 18 16 14 12 10 10 9 4
30 27 30 26 22 27 36 36 37 36 32 34 40 46 49 54 35 33 23 34 39 25 28 24 23 24 17 12 14 13 12 12 12 10 10 9 10 8
32 27 22 25 35 40 43 43 44 40 41 45 47 43 40 31 33 33 31 37 32 29 21 25 24 24 15 23 9 3 6 2 11 6 9 10 12 16
37 30 29 38 44 44 48 49 46 47 43 46 39 34 31 34 41 41 35 34 29 28 20 26 20 21 16 27 18 17 9 8 6 5 5 4 5 5
38 36 41 45 48 53 54 54 51 49 42 41 36 39 37 40 33 28 24 24 28 22 22 22 24 16 8 20 22 25 20 15 18 12 10 10 5 2
59 56 51 52 54 51 51 54 49 38 34 37 40 38 32 32 32 29 28 28 29 27 25 26 22 20 12 19 19 20 18 17 14 9 8 6 5 3
52 39 27 26 30 34 36 38 40 37 37 43 41 43 37 36 32 28 31 29 30 31 30 26 30 24 21 25 21 20 20 19 12 9 11 12 10 7
44 36 32 33 36 40 40 40 41 41 40 37 40 40 40 39 36 28 30 31 35 31 35 32 30 26 26 22 21 20 15 11 14 15 12 4 4 3
58 44 40 42 42 46 44 45 45 42 39 37 39 40 42 42 36 35 33 39 36 36 38 33 31 27 28 23 29 26 24 20 11 14 7 4 4 5
63 45 44 46 47 50 48 47 46 41 40 41 44 47 46 44 40 42 41 42 37 37 38 41 39 33 26 27 29 26 24 23 11 12 12 11 2 8
47 50 53 50 50 52 51 49 46 41 42 43 50 51 48 51 49 47 43 37 38 35 36 38 38 28 34 29 30 32 31 25 24 18 16 13 16 7
56 56 50 49 52 51 50 48 49 51 56 47 52 50 48 46 43 43 41 35 34 34 38 38 37 27 25 22 26 33 30 22 16 13 11 10 9 9
61 56 53 52 51 53 49 52 48 53 49 47 54 49 43 42 37 40 38 38 42 41 38 38 38 30 28 29 29 24 18 15 9 4 2 8 6 7
Wind_Direction_500mb
230 239 242 245 246 254 255 255 262 274 277 280 279 275 316 309 304 298 295 275 273 276 274 265 261 268 270 273 275 276 277 276 274 266 258 258 251 248
232 237 242 237 236 243 245 260 266 263 268 277 268 265 293 299 297 295 287 275 275 282 272 264 266 272 280 280 280 279 277 275 266 256 253 248 244 243
223 220 241 223 229 244 256 265 260 258 260 271 269 276 277 289 283 287 291 276 277 280 278 263 273 283 286 284 280 278 278 268 258 250 240 239 241 244
220 226 226 230 239 243 239 253 251 253 261 265 269 273 270 275 299 264 274 281 271 273 277 273 276 284 287 277 277 275 270 263 251 234 230 235 242 246
219 219 209 208 222 227 244 250 254 265 261 260 259 267 277 271 278 286 288 263 273 279 280 264 275 285 280 271 269 267 251 239 231 230 237 241 245 249
196 195 198 207 217 230 240 252 260 262 266 266 263 264 271 278 282 276 278 285 267 264 268 282 274 278 264 254 250 244 239 233 232 235 243 246 244 244
185 192 200 206 218 223 234 245 248 260 265 268 268 267 262 258 267 303 286 286 266 242 243 275 295 282 268 253 245 243 239 240 242 241 242 248 247 247
188 194 202 224 240 256 266 266 265 259 258 266 272 273 276 292 288 283 285 285 274 254 244 237 240 265 268 276 253 239 238 239 239 243 243 246 248 253
189 188 194 210 231 261 270 276 279 278 276 275 279 272 265 264 277 287 281 272 261 266 222 218 220 227 220 239 257 264 243 236 236 237 237 240 231 231
190 198 216 243 272 275 282 269 261 266 275 276 276 278 271 268 266 278 289 249 275 254 231 226 203 222 223 244 248 243 225 226 229 221 220 222 213 194
203 212 230 252 267 280 302 276 266 264 275 270 276 282 277 269 267 270 267 265 240 240 225 232 205 212 221 259 275 233 227 229 221 217 218 210 201 226
210 226 248 267 292 303 310 293 265 263 276 280 274 284 270 274 238 234 222 238 244 238 223 225 202 193 181 217 269 265 207 198 204 210 213 216 206 175
217 229 244 265 277 289 303 292 269 260 273 285 287 285 272 235 217 222 236 241 229 237 235 212 209 196 217 179 200 176 126 40 151 171 209 220 217 203
219 229 238 255 273 292 298 290 272 262 269 280 285 256 237 213 213 220 238 230 231 247 228 208 194 198 199 184 160 169 159 114 120 150 144 169 212 213
224 233 238 258 279 288 291 285 267 264 265 268 257 239 236 211 221 231 225 231 239 234 214 210 194 177 183 178 173 175 175 166 182 204 192 175 217 254
237 244 255 269 274 277 276 273 269 260 253 257 250 239 218 220 218 220 229 247 222 211 194 200 188 170 165 153 159 160 168 168 185 196 187 189 192 154
240 241 239 262 275 275 270 264 255 252 255 253 245 234 218 218 223 229 230 224 210 202 193 183 189 192 178 143 139 153 156 161 164 169 156 156 150 187
210 216 238 252 260 263 264 255 251 251 248 245 240 229 222 217 217 215 223 218 209 200 184 189 180 166 161 154 160 139 146 167 162 155 163 172 213 219
222 234 243 250 253 257 254 248 248 248 246 240 233 225 217 219 225 215 236 223 208 198 188 179 172 169 162 141 146 148 140 141 145 165 156 179 264 317
232 242 244 246 247 248 247 245 246 250 241 235 231 224 220 222 222 214 211 217 203 197 190 182 189 189 178 170 171 172 169 145 147 143 151 157 4 5
239 242 237 241 240 237 238 239 241 246 249 236 228 225 225 226 221 210 211 205 195 186 186 186 190 194 187 188 162 164 167 168 173 171 182 251 283 311
238 237 241 238 234 232 234 238 242 245 250 240 222 219 225 228 222 212 201 190 184 181 178 174 164 160 149 155 157 162 166 172 186 193 194 204 199 174
230 233 233 234 229 228 231 233 241 247 241 228 216 218 220 217 212 197 186 176 169 162 151 152 155 153 148 162 149 146 155 149 104 74 104 2 335 308
Wind_Speed_850mb
47 54 54 46 47 47 48 49 41 35 43 51 40 32 32 39 45 35 33 25 27 29 29 30 30 30 34 38 42 40 37 34 33 33 36 33 31 29
48 47 52 38 43 40 40 39 46 48 55 42 38 36 36 35 35 31 32 28 30 32 27 28 26 29 34 36 33 30 29 26 27 29 29 28 25 25
47 42 42 35 33 32 35 33 32 35 44 43 43 49 35 33 36 28 23 25 28 24 25 26 27 29 31 31 27 24 21 23 23 24 27 26 23 23
45 47 41 39 37 33 22 25 27 33 36 42 43 36 30 28 31 35 29 23 30 31 32 28 29 28 29 25 22 20 19 17 16 16 19 21 22 25
41 36 28 27 27 23 22 27 31 35 37 38 42 37 38 35 36 30 30 37 26 36 35 33 29 28 25 21 16 14 11 10 12 13 17 19 23 25
33 31 28 26 25 23 25 28 30 35 38 41 43 43 40 36 45 36 35 35 39 29 30 27 25 24 19 18 14 13 11 11 11 12 13 14 19 20
32 28 25 24 27 28 25 28 34 29 34 36 39 42 48 36 37 33 31 39 35 25 27 27 23 11 14 15 15 15 15 16 15 14 13 12 13 14
32 25 20 23 28 19 24 30 32 40 42 37 41 44 48 34 40 29 26 37 41 34 25 21 19 17 13 12 10 11 15 16 16 16 14 14 14 15
33 28 19 14 16 18 26 32 33 28 32 39 47 48 48 44 38 35 35 38 43 31 20 21 19 18 22 24 26 25 17 15 15 15 14 13 9 7
33 24 19 17 17 20 22 27 32 34 34 40 48 51 49 49 49 53 42 39 30 34 18 23 22 21 24 28 26 21 18 14 13 11 11 10 8 6
29 24 21 20 23 24 30 30 33 36 35 36 44 53 56 54 49 41 21 22 36 32 28 24 23 21 17 16 13 20 18 16 14 12 10 10 9 4
30 27 30 26 22 27 36 36 37 36 32 34 40 46 49 54 35 33 23 34 39 25 28 24 23 24 17 12 14 13 12 12 12 10 10 9 10 8
32 27 22 25 35 40 43 43 44 40 41 45 47 43 40 31 33 33 31 37 32 29 21 25 24 24 15 23 9 3 6 2 11 6 9 10 12 16
37 30 29 38 44 44 48 49 46 47 43 46 39 34 31 34 41 41 35 34 29 28 20 26 20 21 16 27 18 17 9 8 6 5 5 4 5 5
38 36 41 45 48 53 54 54 51 49 42 41 36 39 37 40 33 28 24 24 28 22 22 22 24 16 8 20 22 25 20 15 18 12 10 10 5 2
59 56 51 52 54 51 51 54 49 38 34 37 40 38 32 32 32 29 28 28 29 27 25 26 22 20 12 19 19 20 18 17 14 9 8 6 5 3
52 39 27 26 30 34 36 38 40 37 37 43 41 43 37 36 32 28 31 29 30 31 30 26 30 24 21 25 21 20 20 19 12 9 11 12 10 7
44 36 32 33 36 40 40 40 41 41 40 37 40 40 40 39 36 28 30 31 35 31 35 32 30 26 26 22 21 20 15 11 14 15 12 4 4 3
58 44 40 42 42 46 44 45 45 42 39 37 39 40 42 42 36 35 33 39 36 36 38 33 31 27 28 23 29 26 24 20 11 14 7 4 4 5
63 45 44 46 47 50 48 47 46 41 40 41 44 47 46 44 40 42 41 42 37 37 38 41 39 33 26 27 29 26 24 23 11 12 12 11 2 8
47 50 53 50 50 52 51 49 46 41 42 43 50 51 48 51 49 47 43 37 38 35 36 38 38 28 34 29 30 32 31 25 24 18 16 13 16 7
56 56 50 49 52 51 50 48 49 51 56 47 52 50 48 46 43 43 41 35 34 34 38 38 37 27 25 22 26 33 30 22 16 13 11 10 9 9
61 56 53 52 51 53 49 52 48 53 49 47 54 49 43 42 37 40 38 38 42 41 38 38 38 30 28 29 29 24 18 15 9 4 2 8 6 7
Wind_Direction_850mb
230 239 242 245 246 254 255 255 262 274 277 280 279 275 316 309 304 298 295 275 273 276 274 265 261 268 270 273 275 276 277 276 274 266 258 258 251 248
232 237 242 237 236 243 245 260 266 263 268 277 268 265 293 299 297 295 287 275 275 282 272 264 266 272 280 280 280 279 277 275 266 256 253 248 244 243
223 220 241 223 229 244 256 265 260 258 260 271 269 276 277 289 283 287 291 276 277 280 278 263 273 283 286 284 280 278 278 268 258 250 240 239 241 244
220 226 226 230 239 243 239 253 251 253 261 265 269 273 270 275 299 264 274 281 271 273 277 273 276 284 287 277 277 275 270 263 251 234 230 235 242 246
219 219 209 208 222 227 244 250 254 265 261 260 259 267 277 271 278 286 288 263 273 279 280 264 275 285 280 271 269 267 251 239 231 230 237 241 245 249
196 195 198 207 217 230 240 252 260 262 266 266 263 264 271 278 282 276 278 285 267 264 268 282 274 278 264 254 250 244 239 233 232 235 243 246 244 244
185 192 200 206 218 223 234 245 248 260 265 268 268 267 262 258 267 303 286 286 266 242 243 275 295 282 268 253 245 243 239 240 242 241 242 248 247 247
188 194 202 224 240 256 266 266 265 259 258 266 272 273 276 292 288 283 285 285 274 254 244 237 240 265 268 276 253 239 238 239 239 243 243 246 248 253
189 188 194 210 231 261 270 276 279 278 276 275 279 272 265 264 277 287 281 272 261 266 222 218 220 227 220 239 257 264 243 236 236 237 237 240 231 231
190 198 216 243 272 275 282 269 261 266 275 276 276 278 271 268 266 278 289 249 275 254 231 226 203 222 223 244 248 243 225 226 229 221 220 222 213 194
203 212 230 252 267 280 302 276 266 264 275 270 276 282 277 269 267 270 267 265 240 240 225 232 205 212 221 259 275 233 227 229 221 217 218 210 201 226
210 226 248 267 292 303 310 293 265 263 276 280 274 284 270 274 238 234 222 238 244 238 223 225 202 193 181 217 269 265 207 198 204 210 213 216 206 175
217 229 244 265 277 289 303 292 269 260 273 285 287 285 272 235 217 222 236 241 229 237 235 212 209 196 217 179 200 176 126 40 151 171 209 220 217 203
219 229 238 255 273 292 298 290 272 262 269 280 285 256 237 213 213 220 238 230 231 247 228 208 194 198 199 184 160 169 159 114 120 150 144 169 212 213
224 233 238 258 279 288 291 285 267 264 265 268 257 239 236 211 221 231 225 231 239 234 214 210 194 177 183 178 173 175 175 166 182 204 192 175 217 254
237 244 255 269 274 277 276 273 269 260 253 257 250 239 218 220 218 220 229 247 222 211 194 200 188 170 165 153 159 160 168 168 185 196 187 189 192 154
240 241 239 262 275 275 270 264 255 252 255 253 245 234 218 218 223 229 230 224 210 202 193 183 189 192 178 143 139 153 156 161 164 169 156 156 150 187
210 216 238 252 260 263 264 255 251 251 248 245 240 229 222 217 217 215 223 218 209 200 184 189 180 166 161 154 160 139 146 167 162 155 163 172 213 219
222 234 243 250 253 257 254 248 248 248 246 240 233 225 217 219 225 215 236 223 208 198 188 179 172 169 162 141 146 148 140 141 145 165 156 179 264 317
232 242 244 246 247 248 247 245 246 250 241 235 231 224 220 222 222 214 211 217 203 197 190 182 189 189 178 170 171 172 169 145 147 143 151 157 4 5
239 242 237 241 240 237 238 239 241 246 249 236 228 225 225 226 221 210 211 205 195 186 186 186 190 194 187 188 162 164 167 168 173 171 182 251 283 311
238 237 241 238 234 232 234 238 242 245 250 240 222 219 225 228 222 212 201 190 184 181 178 174 164 160 149 155 157 162 166 172 186 193 194 204 199 174
230 233 233 234 229 228 231 233 241 247 241 228 216 218 220 217 212 197 186 176 169 162 151 152 155 153 148 162 149 146 155 149 104 74 104 2 335 308